User: anonymous   Login
Location: Unspecified
(0.0000°N, 0.0000°E)
Time: 07:19:22
(UTC+00:00)
Language:

RS-15 - Orbit

View from above orbital plane
View from above orbital plane
View from above satellite
View from above satellite

Ground track
Ground track

The orbit data is extracted from the following two-line orbital elements,

1 23439U 94085A   20047.79379108 -.00000043 +00000-0 -79943-5 0  9990
2 23439 064.8153 082.9947 0146407 065.5350 296.0765 11.27568787035303
Epoch (UTC): 16 February 2020 19:03:03
Eccentricity: 0.0146407
inclination: 64.8153°
perigee height: 1899 km
apogee height: 2145 km
right ascension of ascending node: 82.9947°
argument of perigee: 65.5350°
revolutions per day: 11.27568787
mean anomaly at epoch: 296.0765°
orbit number at epoch: 3530

The dashed part of the orbit path shows where the satellite is in the earth's shadow,  

DLR